This is the latest recevied weather packets stored in our database for station/object K5KHP. If no packets are shown the sender has not sent any weather packets the latest 10 day(s).
| Time | Temp. | Humidity | Pressure | Rain* | Wind** | Luminosity | Snow |
|---|---|---|---|---|---|---|---|
| 1777830092 | 17.22° C | 71% | 1013.9 hPa | 0 mm | - | 151 W/m² | - |
| 1777829787 | 17.22° C | 72% | 1014 hPa | 0 mm | - | 190 W/m² | - |
| 1777829484 | 17.22° C | 73% | 1014 hPa | 0 mm | - | 199 W/m² | - |
| 1777829180 | 17.22° C | 73% | 1013.8 hPa | 0 mm | - | 189 W/m² | - |
| 1777828878 | 16.67° C | 73% | 1013.8 hPa | 0 mm | - | 200 W/m² | - |
| 1777828574 | 16.67° C | 73% | 1013.8 hPa | 0 mm | - | 220 W/m² | - |
| 1777828271 | 16.67° C | 72% | 1013.9 hPa | 0 mm | - | 220 W/m² | - |
| 1777827968 | 17.22° C | 73% | 1013.9 hPa | 0 mm | - | 240 W/m² | - |
| 1777827665 | 16.67° C | 75% | 1014 hPa | 0 mm | - | 242 W/m² | - |
| 1777827362 | 16.11° C | 75% | 1013.8 hPa | 0 mm | - | 212 W/m² | - |
| 1777827058 | 16.67° C | 74% | 1013.9 hPa | 0 mm | - | 220 W/m² | - |
| 1777826755 | 16.11° C | 75% | 1013.9 hPa | 0 mm | - | 250 W/m² | - |
| 1777826452 | 16.11° C | 77% | 1013.7 hPa | 0 mm | - | 145 W/m² | - |
| 1777826149 | 16.11° C | 77% | 1013.9 hPa | 0 mm | - | 108 W/m² | - |
| 1777825846 | 15.56° C | 78% | 1014 hPa | 0 mm | - | 90 W/m² | - |
| 1777825543 | 16.11° C | 78% | 1013.9 hPa | 0 mm | - | 90 W/m² | - |
| 1777825241 | 16.11° C | 78% | 1013.8 hPa | 0 mm | - | 91 W/m² | - |
| 1777824937 | 15.56° C | 78% | 1013.8 hPa | 0 mm | - | 90 W/m² | - |
| 1777824634 | 15.56° C | 79% | 1013.8 hPa | 0 mm | - | 92 W/m² | - |
| 1777824331 | 15.56° C | 79% | 1013.9 hPa | 0 mm | - | 92 W/m² | - |
| 1777824026 | 15.56° C | 79% | 1013.5 hPa | 0 mm | - | 86 W/m² | - |
| 1777823723 | 15.56° C | 79% | 1013.7 hPa | 0 mm | - | 80 W/m² | - |
| 1777823420 | 15.56° C | 79% | 1013.7 hPa | 0 mm | - | 78 W/m² | - |
| 1777823118 | 15.56° C | 80% | 1013.7 hPa | 0 mm | - | 72 W/m² | - |
| 1777822815 | 15° C | 79% | 1013.6 hPa | 0 mm | - | 65 W/m² | - |
* Rain latest hour (hover to see other rain measurements)
** Current wind speed in m/s (hover to see current wind gust speed)